EW2961 Weather Reports


time (UTC)temp
C
wind
direction
speed
KPH
gust
KPH
rain 1hr
cm
rain 24hr
cm
rain mn
cm
humidity
%
barometer
mb
20260507070005 8 0 0.0 0.0 0.00 0.00 0.00 78 1018.2
20260507064718 8 0 0.0 0.0 0.00 0.00 0.00 77 1018.4
20260507063217 8 0 0.0 0.0 0.00 0.00 0.00 76 1018.5
20260507061718 9 0 0.0 0.0 0.00 0.00 0.00 75 1018.3
20260507060003 10 0 0.0 0.0 0.00 0.00 0.00 73 1018.0
20260507054718 10 0 0.0 0.0 0.00 0.00 0.00 72 1017.8
20260507053004 10 0 0.0 0.0 0.00 0.00 0.00 72 1018.0
20260507051504 10 0 0.0 0.0 0.00 0.00 0.00 71 1017.8
20260507050005 11 0 0.0 0.0 0.00 0.00 0.00 69 1017.8
20260507044503 11 0 0.0 0.0 0.00 0.00 0.00 67 1017.8
20260507043218 11 0 0.0 0.0 0.00 0.00 0.00 66 1017.7
20260507041503 11 0 0.0 0.0 0.00 0.00 0.00 65 1017.7
20260507040003 12 0 0.0 0.0 0.00 0.00 0.00 64 1017.8
20260507034503 12 0 0.0 0.0 0.00 0.00 0.00 62 1017.6
20260507033003 12 0 0.0 1.6 0.00 0.00 0.00 62 1017.6
20260507031503 12 59 0.0 6.4 0.00 0.00 0.00 62 1017.4
20260507030003 13 59 1.6 6.4 0.00 0.00 0.00 61 1017.3
20260507024503 13 60 1.6 9.7 0.00 0.00 0.00 60 1017.1
20260507023004 13 61 1.6 8.0 0.00 0.00 0.00 59 1017.0
20260507021503 13 67 1.6 6.4 0.00 0.00 0.00 59 1016.9
20260507020218 14 67 0.0 3.2 0.00 0.00 0.00 58 1016.7
20260507014716 14 67 0.0 1.6 0.00 0.00 0.00 57 1016.6
20260507013003 15 67 0.0 4.8 0.00 0.00 0.00 55 1016.3
20260507011503 15 67 0.0 4.8 0.00 0.00 0.00 54 1016.1
20260507010217 15 68 1.6 8.0 0.00 0.00 0.00 53 1016.0
20260507004503 15 75 1.6 12.9 0.00 0.00 0.00 52 1015.9
20260507003004 16 70 1.6 9.7 0.00 0.00 0.00 51 1015.7
20260507001503 16 33 3.2 16.1 0.00 0.00 0.00 49 1015.6
20260507000004 17 39 1.6 8.0 0.00 0.00 0.00 48 1015.5
20260506234503 17 42 3.2 17.7 0.00 0.00 0.00 48 1015.6
20260506233219 17 46 3.2 14.5 0.00 0.00 0.00 49 1015.4
20260506231503 17 18 1.6 16.1 0.00 0.00 0.00 48 1015.3
20260506230003 18 50 3.2 12.9 0.00 0.00 0.00 47 1015.1
20260506224503 17 71 3.2 16.1 0.00 0.00 0.00 50 1015.1
20260506223003 17 59 3.2 14.5 0.00 0.00 0.00 50 1014.9
20260506221504 17 57 4.8 17.7 0.00 0.00 0.00 51 1014.8
20260506220003 17 17 3.2 16.1 0.00 0.00 0.00 49 1014.7
20260506214504 17 6 6.4 16.1 0.00 0.00 0.00 50 1014.6
20260506213003 18 28 4.8 16.1 0.00 0.00 0.00 50 1014.7
20260506211503 17 25 6.4 20.9 0.00 0.00 0.00 51 1014.8
20260506210003 17 53 4.8 16.1 0.00 0.00 0.00 51 1014.7
20260506204503 17 31 4.8 14.5 0.00 0.00 0.00 53 1015.0
20260506203003 17 21 4.8 16.1 0.00 0.00 0.00 56 1015.4
20260506201503 16 11 4.8 17.7 0.00 0.00 0.00 55 1015.5
20260506200217 17 47 4.8 16.1 0.00 0.00 0.00 53 1015.7
20260506194503 18 25 3.2 14.5 0.00 0.00 0.00 52 1015.5
20260506193003 17 20 4.8 17.7 0.00 0.00 0.00 54 1015.6
20260506191503 17 28 4.8 17.7 0.00 0.00 0.00 54 1015.8
20260506190003 17 37 3.2 14.5 0.00 0.00 0.00 55 1016.1
20260506184504 17 30 3.2 16.1 0.00 0.00 0.00 54 1016.3
20260506183004 17 26 3.2 14.5 0.00 0.00 0.00 54 1016.5
20260506181503 17 79 3.2 16.1 0.00 0.00 0.00 53 1016.5
20260506180004 17 57 6.4 16.1 0.00 0.00 0.00 56 1016.6
20260506174503 16 40 4.8 17.7 0.00 0.00 0.00 57 1016.7
20260506173003 17 43 4.8 19.3 0.00 0.00 0.00 57 1017.0
20260506171504 17 52 3.2 14.5 0.00 0.00 0.00 58 1017.5
20260506170004 16 73 3.2 12.9 0.00 0.00 0.00 59 1017.9
20260506164503 15 72 4.8 14.5 0.00 0.00 0.00 62 1018.0
20260506163003 14 14 4.8 17.7 0.00 0.00 0.00 60 1017.7
20260506161503 13 10 6.4 19.3 0.00 0.00 0.00 62 1017.6
20260506160003 15 33 4.8 17.7 0.00 0.00 0.00 60 1017.4
20260506154503 15 28 3.2 16.1 0.00 0.00 0.00 62 1017.0
20260506153218 14 42 4.8 17.7 0.00 0.00 0.00 63 1016.7
20260506151503 13 87 4.8 14.5 0.00 0.00 0.00 64 1016.1
20260506150004 12 78 6.4 22.5 0.00 0.00 0.00 64 1016.1
20260506144503 12 68 4.8 19.3 0.00 0.00 0.00 66 1016.1
20260506143004 11 56 4.8 19.3 0.00 0.00 0.00 69 1016.2
20260506141503 11 56 4.8 19.3 0.00 0.00 0.00 71 1016.1
20260506140003 10 19 4.8 20.9 0.00 0.00 0.00 74 1016.3
20260506134503 10 28 8.0 20.9 0.00 0.00 0.00 74 1016.3
20260506133003 10 39 4.8 22.5 0.00 0.00 0.00 78 1016.4
20260506131503 10 39 4.8 17.7 0.00 0.00 0.00 78 1016.2
20260506130219 10 33 3.2 20.9 0.00 0.00 0.00 79 1016.1
20260506124503 9 30 3.2 17.7 0.00 0.00 0.00 81 1016.1
20260506123004 9 17 8.0 22.5 0.00 0.00 0.00 82 1016.1
20260506121503 9 26 8.0 20.9 0.00 0.00 0.00 81 1015.7
20260506120004 8 2 4.8 19.3 0.00 0.00 0.00 84 1015.3
20260506114717 9 13 4.8 16.1 0.00 0.00 0.00 84 1015.3
20260506113003 9 12 4.8 17.7 0.00 0.00 0.00 82 1015.4
20260506111717 9 16 4.8 19.3 0.00 0.00 0.00 81 1015.3
20260506110218 9 6 4.8 14.5 0.00 0.00 0.00 80 1015.1
20260506104717 10 16 6.4 19.3 0.00 0.00 0.00 77 1014.8
20260506103003 10 17 3.2 16.1 0.00 0.00 0.00 77 1014.4
20260506101503 10 2 4.8 22.5 0.00 0.00 0.00 77 1014.7
20260506100003 10 3 4.8 12.9 0.00 0.00 0.00 78 1014.3
20260506094503 10 11 4.8 14.5 0.00 0.00 0.00 78 1014.3
20260506093003 10 11 3.2 14.5 0.00 0.00 0.00 77 1013.5
20260506091504 10 15 6.4 19.3 0.00 0.00 0.00 77 1013.2
20260506090004 10 6 6.4 19.3 0.00 0.00 0.00 77 1012.6
20260506084718 10 19 6.4 17.7 0.00 0.00 0.00 77 1012.4
20260506083003 10 14 3.2 16.1 0.00 0.00 0.00 77 1012.3
20260506081718 10 12 4.8 14.5 0.00 0.00 0.00 76 1012.2
20260506073003 10 59 3.2 16.1 0.00 0.00 0.00 75 1011.9
20260506071718 10 20 3.2 17.7 0.00 0.00 0.00 75 1012.3